Date String (YYYY-MM-DD hh:mm:ss) UTC,Instrument flags,Ambient pressure (hPa),Sample flow (lpm),Bypass flow (lpm),Sample temperature (°C),Ambient temperature (°C),ASC tube jacket temperature (°C),LED temperature (°C),Box temperature (°C),Sample RH (%),Span deviation,Mass concentration (μg/m³),Mass concentration (μg/m³),Mass concentration (μg/m³)
DateTimeUTC,F1_M11,P_M11,Q1_M11,Q2_M11,T1_M11,T2_M11,T3_M11,T4_M11,T5_M11,U1_M11,ZSPAN_M11,X0_M11,X2_M11,X1_M11
2023-01-17 19:00:00,,0813.5,5.00,0.00,23.0,21.6,00.0,31.9,24.8,14.4,-001.1,0008.56,0005.83,0005.59
2023-01-17 19:01:00,,0813.5,5.04,0.00,23.0,21.6,00.0,31.9,24.8,14.1,-001.0,0008.46,0005.77,0005.56
2023-01-17 19:02:00,,0813.5,5.00,0.00,23.0,21.6,00.0,31.9,24.8,14.1,-001.2,0008.44,0005.74,0005.55
2023-01-17 19:03:00,,0813.4,5.01,0.00,23.0,21.6,00.0,31.9,24.8,14.1,-001.3,0008.52,0005.76,0005.56
2023-01-17 19:04:00,,0813.4,5.02,0.00,23.0,21.6,00.0,31.9,24.8,14.1,-000.8,0008.60,0005.78,0005.58
2023-01-17 19:05:00,,0813.4,5.01,0.00,23.0,21.7,00.0,31.9,24.8,14.3,-001.0,0008.63,0005.80,0005.59
2023-01-17 19:06:00,,0813.3,4.99,0.00,23.0,21.7,00.0,31.8,24.8,14.3,-001.2,0008.70,0005.82,0005.61
2023-01-17 19:07:00,,0813.3,5.01,0.00,23.0,21.7,00.0,31.8,24.9,14.4,-000.9,0008.76,0005.85,0005.63
2023-01-17 19:08:00,,0813.3,5.01,0.00,23.0,21.7,00.0,31.8,24.8,14.4,-000.6,0008.88,0005.91,0005.66
2023-01-17 19:09:00,,0813.2,5.01,0.00,23.0,21.7,00.0,31.8,24.9,14.5,-000.7,0008.99,0005.97,0005.70
2023-01-17 19:10:00,,0813.2,4.99,0.00,23.0,21.7,00.0,31.8,24.8,14.5,-000.6,0008.71,0006.04,0005.75
2023-01-17 19:11:00,,0813.2,5.00,0.00,23.0,21.6,00.0,31.8,24.8,14.4,-001.0,0009.05,0006.10,0005.80
2023-01-17 19:12:00,,0813.2,5.01,0.00,23.0,21.6,00.0,31.8,24.8,14.4,-001.1,0009.14,0006.17,0005.86
2023-01-17 19:13:00,,0813.2,5.00,0.00,23.0,21.6,00.0,31.8,24.8,14.4,-001.5,0009.24,0006.25,0005.94
2023-01-17 19:14:00,,0813.3,5.01,0.00,23.0,21.6,00.0,31.8,24.8,14.6,-001.8,0009.32,0006.33,0006.01
2023-01-17 19:15:00,,0813.2,4.99,0.00,23.0,21.6,00.0,31.8,24.8,14.5,-001.4,0009.35,0006.40,0006.08
2023-01-17 19:16:00,,0813.2,5.00,0.00,23.0,21.6,00.0,31.8,24.8,14.5,-001.0,0009.50,0006.49,0006.15
2023-01-17 19:17:00,,0813.2,5.01,0.00,23.0,21.6,00.0,31.8,24.8,14.6,-000.8,0009.54,0006.52,0006.18
2023-01-17 19:18:00,,0813.2,5.01,0.00,23.0,21.6,00.0,31.8,24.8,14.6,-000.9,0009.57,0006.56,0006.22
2023-01-17 19:19:00,,0813.1,5.01,0.00,23.0,21.6,00.0,31.8,24.8,14.7,-001.1,0009.54,0006.59,0006.27
2023-01-17 19:20:00,,0813.1,4.99,0.00,23.0,21.5,00.0,31.8,24.7,14.7,-000.6,0009.60,0006.65,0006.33
2023-01-17 19:21:00,,0813.1,5.00,0.00,22.9,21.4,00.0,31.8,24.7,14.9,-000.7,0010.23,0006.70,0006.38
2023-01-17 19:22:00,,0813.1,4.99,0.00,22.9,21.4,00.0,31.8,24.7,15.0,-000.8,0010.74,0006.73,0006.41
2023-01-17 19:23:00,,0813.2,5.00,0.00,22.9,21.4,00.0,31.8,24.7,14.8,-000.1,0010.67,0006.76,0006.42
2023-01-17 19:24:00,,0813.3,4.99,0.00,22.9,21.3,00.0,31.8,24.7,14.7,0000.0,0010.61,0006.73,0006.41
2023-01-17 19:25:00,,0813.2,4.99,0.00,22.9,21.3,00.0,31.8,24.6,14.6,0000.0,0010.53,0006.70,0006.40
2023-01-17 19:26:00,,0813.2,5.02,0.00,22.9,21.3,00.0,31.8,24.6,14.7,0000.0,0010.49,0006.69,0006.39
2023-01-17 19:27:00,,0813.2,4.98,0.00,22.9,21.4,00.0,31.8,24.7,14.8,0000.0,0010.40,0006.66,0006.37
2023-01-17 19:28:00,,0813.1,4.99,0.00,22.9,22.1,00.0,31.7,24.8,14.8,-001.3,0010.50,0006.69,0006.37
2023-01-17 19:29:00,,0813.1,5.00,0.00,23.0,23.0,00.0,31.7,25.0,14.7,-001.6,0010.85,0006.70,0006.36
2023-01-17 19:30:00,,0813.0,4.99,0.00,23.1,23.2,00.0,31.8,25.1,14.6,-001.2,0011.27,0006.67,0006.33
2023-01-17 19:31:00,,0812.9,4.98,0.00,23.1,22.8,00.0,31.8,25.1,14.4,-000.4,0011.52,0006.61,0006.28
2023-01-17 19:32:00,,0812.9,5.01,0.00,23.1,22.5,00.0,31.9,25.0,14.4,0000.0,0011.37,0006.56,0006.24
2023-01-17 19:33:00,,0813.4,4.99,0.00,23.1,22.2,00.0,31.9,24.9,14.5,-002.0,0010.94,0006.50,0006.21
2023-01-17 19:34:00,,0813.2,5.00,0.00,23.1,22.0,00.0,31.9,24.9,14.4,-003.1,0010.89,0006.46,0006.20
2023-01-17 19:35:00,,0813.2,4.99,0.00,23.1,21.8,00.0,31.9,24.9,14.5,-003.0,0010.95,0006.47,0006.20
2023-01-17 19:36:00,,0813.1,5.01,0.00,23.1,21.7,00.0,31.9,24.8,14.6,-002.9,0011.05,0006.49,0006.19
2023-01-17 19:37:00,,0813.1,4.99,0.00,23.0,21.6,00.0,31.9,24.8,14.7,-002.7,0011.20,0006.48,0006.19
2023-01-17 19:38:00,,0813.2,5.01,0.00,23.0,21.5,00.0,31.9,24.8,14.6,-002.8,0011.37,0006.52,0006.19
2023-01-17 19:39:00,,0813.0,4.99,0.00,23.0,21.4,00.0,31.9,24.7,14.6,-002.8,0011.37,0006.52,0006.21
2023-01-17 19:40:00,,0813.4,5.00,0.00,23.0,21.4,00.0,31.9,24.7,14.7,-002.6,0011.12,0006.52,0006.22
2023-01-17 19:41:00,,0813.1,4.99,0.00,23.0,21.3,00.0,31.9,24.7,14.8,-002.1,0010.87,0006.58,0006.25
2023-01-17 19:42:00,,0813.2,4.98,0.00,22.9,21.3,00.0,31.9,24.7,14.8,-002.0,0010.67,0006.63,0006.28
2023-01-17 19:43:00,,0813.1,4.99,0.00,22.9,21.3,00.0,31.9,24.7,14.8,-002.2,0010.21,0006.65,0006.30
2023-01-17 19:44:00,,0813.1,4.99,0.00,22.9,21.3,00.0,31.9,24.6,14.9,-002.3,0009.77,0006.70,0006.32
2023-01-17 19:45:00,,0813.1,5.00,0.00,22.9,21.2,00.0,31.8,24.6,14.8,-002.2,0009.90,0006.77,0006.36
2023-01-17 19:46:00,,0813.2,4.99,0.00,22.8,21.1,00.0,31.8,24.5,15.0,0000.0,0009.90,0006.78,0006.36
2023-01-17 19:47:00,,0813.2,5.02,0.00,22.8,21.1,00.0,31.8,24.5,15.1,0000.0,0009.89,0006.82,0006.40
2023-01-17 19:48:00,,0813.0,4.99,0.00,22.8,21.1,00.0,31.8,24.5,15.0,0000.0,0010.79,0006.90,0006.46
2023-01-17 19:49:00,,0813.1,5.04,0.00,22.8,21.0,00.0,31.8,24.5,15.0,-000.6,0011.02,0006.91,0006.49
2023-01-17 19:50:00,,0813.1,5.00,0.00,22.8,21.0,00.0,31.8,24.4,15.1,-001.7,0010.99,0006.92,0006.50
2023-01-17 19:51:00,,0813.1,4.98,0.00,22.7,20.9,00.0,31.7,24.4,15.2,-001.6,0011.05,0006.94,0006.52
2023-01-17 19:52:00,,0813.1,5.01,0.00,22.7,20.9,00.0,31.7,24.4,15.3,-001.9,0011.08,0006.93,0006.54
2023-01-17 19:53:00,,0813.1,5.00,0.00,22.7,20.9,00.0,31.7,24.4,15.5,-002.3,0011.48,0006.96,0006.55
2023-01-17 19:54:00,,0813.1,4.98,0.00,22.7,20.8,00.0,31.7,24.3,15.4,-001.7,0011.80,0007.03,0006.59
2023-01-17 19:55:00,,0813.1,5.00,0.00,22.6,20.9,00.0,31.7,24.3,15.4,-001.5,0011.92,0007.07,0006.62
2023-01-17 19:56:00,,0813.1,5.00,0.00,22.7,21.6,00.0,31.6,24.5,15.2,-001.0,0011.89,0007.05,0006.61
2023-01-17 19:57:00,,0813.1,5.01,0.00,22.8,22.6,00.0,31.6,24.7,15.1,-001.0,0011.92,0007.06,0006.60
2023-01-17 19:58:00,,0813.0,5.00,0.00,22.9,23.2,00.0,31.6,24.9,15.0,-001.2,0011.90,0007.06,0006.59
2023-01-17 19:59:00,,0813.2,5.00,0.00,22.9,22.9,00.0,31.7,24.9,15.0,-001.3,0011.11,0007.02,0006.56
